Location: El Bakhil
(32.7726°N, 5.5387°W)
Time: 03:44:24
(UTC+00:00)

YAOGAN 1 - Pass Details

Date: 03 March 2021
Orbit: 618 x 620 km, 97.9° (Epoch: 12 April)

Event Time Altitude Azimuth Distance (km) Brightness Sun altitude
Rises 19:10:18 0° 165° (SSE) 2,880 5.8 -11.1°
Reaches altitude 10° 19:12:28 10° 165° (SSE) 1,978 5.0 -11.6°
Maximum altitude 19:16:47 84° 77° (ENE) 628 2.5 -12.5°
Drops below altitude 10° 19:21:07 10° 350° (N) 1,991 5.3 -13.4°
Sets 19:23:19 0° 349° (N) 2,901 6.2 -13.9°
